�������r�C�����j�^�v���󋵏��
Date,Time,5�C6���@���p�r�C��,����,����(m/s)
2022/03/20,00:00,4.1,��쓌,4.6
2022/03/20,00:10,4.0,��쓌,4.9
2022/03/20,00:20,4.0,��쓌,4.2
2022/03/20,00:30,3.9,��,5.0
2022/03/20,00:40,3.9,��,5.1
2022/03/20,00:50,4.1,��,6.8
2022/03/20,01:00,4.0,��,6.8
2022/03/20,01:10,3.9,��,5.9
2022/03/20,01:20,4.2,��,5.3
2022/03/20,01:30,4.0,��쐼,5.5
2022/03/20,01:40,3.9,�쐼,5.0
2022/03/20,01:50,4.1,�쐼,5.0
2022/03/20,02:00,3.9,�쐼,4.4
2022/03/20,02:10,4.0,���쐼,5.0
2022/03/20,02:20,4.0,��,5.4
2022/03/20,02:30,4.2,��,5.2
2022/03/20,02:40,3.9,���k��,4.6
2022/03/20,02:50,4.1,���k��,4.9
2022/03/20,03:00,3.8,���k��,5.1
2022/03/20,03:10,4.1,���k��,5.7
2022/03/20,03:20,4.2,���k��,5.5
2022/03/20,03:30,3.9,���k��,5.6
2022/03/20,03:40,4.0,���k��,5.7
2022/03/20,03:50,3.9,���k��,5.3
2022/03/20,04:00,3.8,��,5.1
2022/03/20,04:10,4.0,��,5.7
2022/03/20,04:20,4.0,���k��,6.6
2022/03/20,04:30,4.0,���k��,4.4
2022/03/20,04:40,4.2,��,5.4
2022/03/20,04:50,3.9,��,5.2
2022/03/20,05:00,4.1,��,4.1
2022/03/20,05:10,4.0,��,3.8
2022/03/20,05:20,3.9,���k��,6.4
2022/03/20,05:30,4.1,���k��,5.7
2022/03/20,05:40,4.0,���k��,5.2
2022/03/20,05:50,3.8,��,5.1
2022/03/20,06:00,4.0,��,5.5
2022/03/20,06:10,4.1,���k��,5.3
2022/03/20,06:20,3.9,�k��,5.4
2022/03/20,06:30,3.9,�k��,3.6
2022/03/20,06:40,4.2,���k��,1.7
2022/03/20,06:50,4.1,�k�k��,1.7
2022/03/20,07:00,4.0,�k�k��,2.2
2022/03/20,07:10,3.9,-,CALM
2022/03/20,07:20,4.0,�k,1.7
2022/03/20,07:30,4.0,�k�k��,2.3
2022/03/20,07:40,4.0,�k�k��,3.2
2022/03/20,07:50,4.1,�k,3.0
2022/03/20,08:00,4.1,-,CALM
2022/03/20,08:10,4.1,���쓌,1.5
2022/03/20,08:20,4.0,�k��,1.1
2022/03/20,08:30,4.2,���쐼,1.5
2022/03/20,08:40,4.0,���쐼,2.0
2022/03/20,08:50,4.1,��쓌,2.5
2022/03/20,09:00,4.1,���쓌,2.6
2022/03/20,09:10,4.0,��쓌,1.9
2022/03/20,09:20,4.1,���쓌,1.7
2022/03/20,09:30,3.8,��쓌,2.0
2022/03/20,09:40,4.2,��,2.3
2022/03/20,09:50,4.0,�쓌,3.2
2022/03/20,10:00,4.1,�쓌,3.6
2022/03/20,10:10,3.9,��쓌,3.2
2022/03/20,10:20,4.0,�쓌,2.9
2022/03/20,10:30,4.1,���쓌,2.2
2022/03/20,10:40,4.0,-,CALM
2022/03/20,10:50,4.1,�k��,0.6
2022/03/20,11:00,4.0,�k�k��,2.2
2022/03/20,11:10,4.1,�k,3.4
2022/03/20,11:20,3.9,�k�k��,3.2
2022/03/20,11:30,4.2,�k��,3.1
2022/03/20,11:40,4.0,���k��,4.9
2022/03/20,11:50,4.0,��,8.3
2022/03/20,12:00,4.0,��,7.1
2022/03/20,12:10,4.2,���k��,6.6
2022/03/20,12:20,4.0,��,7.0
2022/03/20,12:30,3.9,��,8.2
2022/03/20,12:40,3.8,��,8.7
2022/03/20,12:50,4.0,��,9.2
2022/03/20,13:00,4.0,��,8.5
2022/03/20,13:10,4.0,��,6.6
2022/03/20,13:20,4.0,���k��,6.1
2022/03/20,13:30,3.9,���k��,6.6
2022/03/20,13:40,4.0,��,5.7
2022/03/20,13:50,4.1,���k��,5.9
2022/03/20,14:00,4.0,�k��,6.5
2022/03/20,14:10,3.9,�k�k��,4.5
2022/03/20,14:20,4.2,�k�k��,7.0
2022/03/20,14:30,4.0,�k�k��,6.6
2022/03/20,14:40,3.7,�k��,5.0
2022/03/20,14:50,4.0,�k��,3.4
2022/03/20,15:00,4.1,�k��,6.1
2022/03/20,15:10,4.1,��,4.4
2022/03/20,15:20,3.9,���k��,5.4
2022/03/20,15:30,3.9,�k��,5.4
2022/03/20,15:40,4.1,���k��,7.1
2022/03/20,15:50,4.0,���k��,6.3
2022/03/20,16:00,3.9,�k��,4.8
2022/03/20,16:10,4.1,���k��,5.3
2022/03/20,16:20,4.1,���k��,4.0
2022/03/20,16:30,4.1,�k��,4.4
2022/03/20,16:40,4.0,�k��,6.3
2022/03/20,16:50,4.0,�k��,6.1
2022/03/20,17:00,4.0,�k��,5.3
2022/03/20,17:10,3.9,�k��,4.5
2022/03/20,17:20,4.0,���k��,5.3
2022/03/20,17:30,4.1,���k��,4.1
2022/03/20,17:40,4.1,��,1.7
2022/03/20,17:50,3.8,��,3.3
2022/03/20,18:00,4.0,���k��,3.5
2022/03/20,18:10,4.0,���k��,2.6
2022/03/20,18:20,4.0,���k��,2.3
2022/03/20,18:30,4.0,�k�k��,2.6
2022/03/20,18:40,4.0,�k��,3.0
2022/03/20,18:50,3.9,�k��,2.8
2022/03/20,19:00,3.9,�k��,3.4
2022/03/20,19:10,4.1,�k��,3.9
2022/03/20,19:20,4.0,�k�k��,4.1
2022/03/20,19:30,4.1,�k�k��,4.7
2022/03/20,19:40,4.0,�k�k��,5.1
2022/03/20,19:50,3.9,�k�k��,4.8
2022/03/20,20:00,3.8,�k�k��,4.4
2022/03/20,20:10,4.2,�k,4.1
2022/03/20,20:20,3.8,�k�k��,4.5
2022/03/20,20:30,3.9,�k,4.6
2022/03/20,20:40,4.1,�k,6.2
2022/03/20,20:50,3.8,�k�k��,6.0
2022/03/20,21:00,4.1,�k�k��,6.3
2022/03/20,21:10,4.1,�k,5.4
2022/03/20,21:20,3.8,�k,6.5
2022/03/20,21:30,4.1,�k,5.1
2022/03/20,21:40,4.1,�k,5.0
2022/03/20,21:50,3.9,�k,4.7
2022/03/20,22:00,4.1,�k,2.6
2022/03/20,22:10,4.0,�k,3.3
2022/03/20,22:20,3.9,�k,4.9
2022/03/20,22:30,4.2,�k�k��,2.0
2022/03/20,22:40,4.0,�k��,2.3
2022/03/20,22:50,4.1,�k��,2.8
2022/03/20,23:00,3.9,�k��,2.6
2022/03/20,23:10,4.0,�k�k��,2.3
2022/03/20,23:20,4.1,�k,2.3
2022/03/20,23:30,3.9,�k��,0.9
2022/03/20,23:40,4.0,���k��,1.2
2022/03/20,23:50,4.1,��,0.6
